| time (UTC) | temp F | wind direction | speed MPH | gust MPH | rain 1hr in | rain 24hr in | rain mn in | humidity % | barometer mb |
| 20260506051145 | 65 | 216 | 3.0 | 3.0 | 0.00 | 0.00 | 0.00 | 65 | 1010.1 |
| 20260506050643 | 65 | 205 | 3.0 | 3.0 | 0.00 | 0.00 | 0.00 | 64 | 1010.2 |
| 20260506050140 | 64 | 222 | 2.0 | 2.0 | 0.00 | 0.00 | 0.00 | 65 | 1010.3 |
| 20260506045132 | 64 | 236 | 2.0 | 2.0 | 0.00 | 0.00 | 0.00 | 65 | 1010.4 |
| 20260506044630 | 65 | 206 | 1.0 | 2.0 | 0.00 | 0.00 | 0.00 | 64 | 1010.2 |
| 20260506044122 | 65 | 208 | 3.0 | 3.0 | 0.00 | 0.00 | 0.00 | 63 | 1010.2 |
| 20260506043619 | 65 | 228 | 1.0 | 1.0 | 0.00 | 0.00 | 0.00 | 63 | 1010.0 |
| 20260506043117 | 65 | 220 | 2.0 | 2.0 | 0.00 | 0.00 | 0.00 | 63 | 1010.3 |
| 20260506042616 | 65 | 223 | 1.0 | 2.0 | 0.00 | 0.00 | 0.00 | 62 | 1010.2 |
| 20260506042114 | 65 | 203 | 2.0 | 2.0 | 0.00 | 0.00 | 0.00 | 62 | 1010.4 |
| 20260506041612 | 66 | 234 | 3.0 | 3.0 | 0.00 | 0.00 | 0.00 | 61 | 1010.3 |
| 20260506041108 | 66 | 215 | 3.0 | 5.0 | 0.00 | 0.00 | 0.00 | 61 | 1010.2 |
| 20260506040607 | 66 | 236 | 0.0 | 0.0 | 0.00 | 0.00 | 0.00 | 61 | 1010.2 |
| 20260506035600 | 66 | 222 | 1.0 | 2.0 | 0.00 | 0.00 | 0.00 | 61 | 1010.3 |
| 20260506035056 | 66 | 209 | 3.0 | 3.0 | 0.00 | 0.00 | 0.00 | 60 | 1010.5 |
| 20260506034553 | 66 | 225 | 2.0 | 3.0 | 0.00 | 0.00 | 0.00 | 59 | 1010.3 |
| 20260506034050 | 66 | 207 | 2.0 | 2.0 | 0.00 | 0.00 | 0.00 | 59 | 1010.2 |
| 20260506033548 | 66 | 194 | 1.0 | 2.0 | 0.00 | 0.00 | 0.00 | 60 | 1010.1 |
| 20260506033044 | 66 | 173 | 4.0 | 5.0 | 0.00 | 0.00 | 0.00 | 59 | 1010.0 |
| 20260506032542 | 66 | 210 | 1.0 | 2.0 | 0.00 | 0.00 | 0.00 | 59 | 1010.2 |
| 20260506032038 | 66 | 219 | 2.0 | 2.0 | 0.00 | 0.00 | 0.00 | 59 | 1010.1 |
| 20260506031536 | 66 | 203 | 2.0 | 2.0 | 0.00 | 0.00 | 0.00 | 58 | 1010.1 |
| 20260506031033 | 67 | 215 | 2.0 | 2.0 | 0.00 | 0.00 | 0.00 | 57 | 1010.4 |
| 20260506030531 | 67 | 232 | 2.0 | 2.0 | 0.00 | 0.00 | 0.00 | 56 | 1010.1 |
| 20260506030028 | 68 | 208 | 2.0 | 2.0 | 0.00 | 0.00 | 0.00 | 56 | 1010.3 |
| 20260506025525 | 67 | 183 | 4.0 | 5.0 | 0.00 | 0.00 | 0.00 | 57 | 1010.3 |
| 20260506025021 | 67 | 234 | 2.0 | 2.0 | 0.00 | 0.00 | 0.00 | 56 | 1010.4 |
| 20260506024518 | 68 | 223 | 2.0 | 2.0 | 0.00 | 0.00 | 0.00 | 55 | 1010.1 |
| 20260506024014 | 68 | 214 | 3.0 | 3.0 | 0.00 | 0.00 | 0.00 | 55 | 1010.3 |
| 20260506023510 | 68 | 231 | 0.0 | 0.0 | 0.00 | 0.00 | 0.00 | 55 | 1010.5 |
| 20260506023009 | 68 | 254 | 3.0 | 3.0 | 0.00 | 0.00 | 0.00 | 54 | 1010.5 |
| 20260506022506 | 68 | 219 | 3.0 | 3.0 | 0.00 | 0.00 | 0.00 | 54 | 1010.4 |
| 20260506022003 | 69 | 220 | 2.0 | 2.0 | 0.00 | 0.00 | 0.00 | 54 | 1010.4 |
| 20260506021500 | 69 | 223 | 3.0 | 3.0 | 0.00 | 0.00 | 0.00 | 53 | 1010.5 |
| 20260506020957 | 69 | 225 | 2.0 | 2.0 | 0.00 | 0.00 | 0.00 | 54 | 1010.6 |
| 20260506020455 | 69 | 205 | 2.0 | 2.0 | 0.00 | 0.00 | 0.00 | 53 | 1010.4 |
| 20260506015952 | 69 | 221 | 1.0 | 1.0 | 0.00 | 0.00 | 0.00 | 54 | 1010.3 |
| 20260506015449 | 69 | 230 | 2.0 | 3.0 | 0.00 | 0.00 | 0.00 | 54 | 1010.4 |
| 20260506014946 | 69 | 224 | 2.0 | 3.0 | 0.00 | 0.00 | 0.00 | 54 | 1010.2 |
| 20260506014443 | 69 | 241 | 1.0 | 2.0 | 0.00 | 0.00 | 0.00 | 54 | 1010.0 |
| 20260506013939 | 69 | 220 | 0.0 | 0.0 | 0.00 | 0.00 | 0.00 | 54 | 1010.2 |
| 20260506013438 | 69 | 226 | 2.0 | 2.0 | 0.00 | 0.00 | 0.00 | 53 | 1009.9 |
| 20260506012933 | 70 | 201 | 2.0 | 2.0 | 0.00 | 0.00 | 0.00 | 53 | 1009.8 |
| 20260506012430 | 70 | 205 | 2.0 | 2.0 | 0.00 | 0.00 | 0.00 | 52 | 1009.8 |
| 20260506011927 | 70 | 218 | 3.0 | 3.0 | 0.00 | 0.00 | 0.00 | 52 | 1009.9 |
| 20260506011425 | 70 | 223 | 2.0 | 2.0 | 0.00 | 0.00 | 0.00 | 52 | 1009.6 |
| 20260506010921 | 70 | 215 | 2.0 | 2.0 | 0.00 | 0.00 | 0.00 | 52 | 1009.5 |
| 20260506010420 | 70 | 229 | 2.0 | 2.0 | 0.00 | 0.00 | 0.00 | 53 | 1009.7 |
| 20260506005916 | 71 | 237 | 2.0 | 2.0 | 0.00 | 0.00 | 0.00 | 51 | 1009.6 |
| 20260506005414 | 71 | 214 | 1.0 | 1.0 | 0.00 | 0.00 | 0.00 | 51 | 1009.7 |
| 20260506004909 | 71 | 206 | 2.0 | 2.0 | 0.00 | 0.00 | 0.00 | 52 | 1009.9 |
| 20260506004407 | 71 | 226 | 2.0 | 2.0 | 0.00 | 0.00 | 0.00 | 52 | 1009.6 |
| 20260506003903 | 71 | 232 | 3.0 | 3.0 | 0.00 | 0.00 | 0.00 | 51 | 1009.5 |
| 20260506003359 | 71 | 234 | 2.0 | 2.0 | 0.00 | 0.00 | 0.00 | 51 | 1009.6 |
| 20260506002856 | 71 | 194 | 3.0 | 3.0 | 0.00 | 0.00 | 0.00 | 51 | 1009.2 |
| 20260506002352 | 71 | 211 | 2.0 | 3.0 | 0.00 | 0.00 | 0.00 | 52 | 1009.2 |
| 20260506001848 | 71 | 227 | 3.0 | 3.0 | 0.00 | 0.00 | 0.00 | 51 | 1009.2 |
| 20260506001345 | 71 | 216 | 2.0 | 2.0 | 0.00 | 0.00 | 0.00 | 50 | 1009.2 |
| 20260506000842 | 72 | 238 | 1.0 | 2.0 | 0.00 | 0.00 | 0.00 | 50 | 1009.1 |
| 20260506000340 | 72 | 227 | 3.0 | 3.0 | 0.00 | 0.00 | 0.00 | 48 | 1009.0 |
| 20260505235836 | 72 | 209 | 2.0 | 3.0 | 0.00 | 0.00 | 0.00 | 48 | 1009.1 |
| 20260505235334 | 72 | 213 | 3.0 | 3.0 | 0.00 | 0.00 | 0.00 | 49 | 1009.1 |
| 20260505234830 | 72 | 241 | 1.0 | 1.0 | 0.00 | 0.00 | 0.00 | 49 | 1009.0 |
| 20260505234329 | 72 | 238 | 1.0 | 1.0 | 0.00 | 0.00 | 0.00 | 48 | 1009.0 |
| 20260505233825 | 72 | 228 | 1.0 | 2.0 | 0.00 | 0.00 | 0.00 | 49 | 1009.1 |
| 20260505233323 | 72 | 212 | 3.0 | 3.0 | 0.00 | 0.00 | 0.00 | 48 | 1009.2 |
| 20260505232820 | 72 | 192 | 2.0 | 2.0 | 0.00 | 0.00 | 0.00 | 48 | 1009.0 |
| 20260505232318 | 72 | 214 | 1.0 | 2.0 | 0.00 | 0.00 | 0.00 | 47 | 1009.1 |
| 20260505231814 | 73 | 246 | 1.0 | 2.0 | 0.00 | 0.00 | 0.00 | 47 | 1009.1 |
| 20260505231312 | 73 | 204 | 3.0 | 3.0 | 0.00 | 0.00 | 0.00 | 46 | 1009.0 |
| 20260505230810 | 73 | 236 | 3.0 | 3.0 | 0.00 | 0.00 | 0.00 | 46 | 1008.9 |
| 20260505230307 | 73 | 248 | 1.0 | 1.0 | 0.00 | 0.00 | 0.00 | 47 | 1008.9 |
| 20260505225803 | 73 | 275 | 3.0 | 3.0 | 0.00 | 0.00 | 0.00 | 47 | 1008.7 |
| 20260505225301 | 73 | 215 | 1.0 | 1.0 | 0.00 | 0.00 | 0.00 | 47 | 1008.6 |
| 20260505224755 | 73 | 230 | 1.0 | 1.0 | 0.00 | 0.00 | 0.00 | 46 | 1008.7 |
| 20260505224254 | 73 | 230 | 1.0 | 2.0 | 0.00 | 0.00 | 0.00 | 46 | 1008.4 |
| 20260505223751 | 73 | 269 | 3.0 | 3.0 | 0.00 | 0.00 | 0.00 | 46 | 1008.9 |
| 20260505223247 | 73 | 195 | 3.0 | 3.0 | 0.00 | 0.00 | 0.00 | 46 | 1008.6 |
| 20260505222743 | 73 | 199 | 3.0 | 3.0 | 0.00 | 0.00 | 0.00 | 46 | 1008.5 |
| 20260505222240 | 74 | 191 | 1.0 | 2.0 | 0.00 | 0.00 | 0.00 | 47 | 1008.4 |
| 20260505221737 | 74 | 241 | 5.0 | 6.0 | 0.00 | 0.00 | 0.00 | 46 | 1008.5 |
| 20260505221233 | 74 | 180 | 3.0 | 3.0 | 0.00 | 0.00 | 0.00 | 46 | 1008.5 |
| 20260505220730 | 74 | 232 | 3.0 | 5.0 | 0.00 | 0.00 | 0.00 | 47 | 1008.6 |
| 20260505220228 | 74 | 249 | 2.0 | 2.0 | 0.00 | 0.00 | 0.00 | 46 | 1008.5 |
| 20260505215726 | 75 | 261 | 2.0 | 2.0 | 0.00 | 0.00 | 0.00 | 45 | 1008.4 |
| 20260505215223 | 75 | 206 | 4.0 | 6.0 | 0.00 | 0.00 | 0.00 | 44 | 1008.6 |
| 20260505214721 | 75 | 207 | 4.0 | 5.0 | 0.00 | 0.00 | 0.00 | 44 | 1008.4 |
| 20260505214218 | 75 | 254 | 1.0 | 2.0 | 0.00 | 0.00 | 0.00 | 44 | 1008.3 |
| 20260505213715 | 75 | 206 | 3.0 | 5.0 | 0.00 | 0.00 | 0.00 | 44 | 1008.4 |
| 20260505213213 | 75 | 245 | 1.0 | 2.0 | 0.00 | 0.00 | 0.00 | 44 | 1008.5 |
| 20260505212708 | 75 | 232 | 2.0 | 2.0 | 0.00 | 0.00 | 0.00 | 42 | 1008.3 |
| 20260505212206 | 75 | 228 | 1.0 | 2.0 | 0.00 | 0.00 | 0.00 | 41 | 1007.9 |
| 20260505211703 | 75 | 194 | 2.0 | 2.0 | 0.00 | 0.00 | 0.00 | 40 | 1008.0 |
| 20260505211200 | 76 | 265 | 2.0 | 2.0 | 0.00 | 0.00 | 0.00 | 39 | 1008.1 |
| 20260505210656 | 76 | 226 | 5.0 | 7.0 | 0.00 | 0.00 | 0.00 | 38 | 1007.9 |
| 20260505210153 | 76 | 207 | 3.0 | 3.0 | 0.00 | 0.00 | 0.00 | 39 | 1008.1 |
| 20260505205651 | 76 | 287 | 2.0 | 5.0 | 0.00 | 0.00 | 0.00 | 39 | 1007.9 |
| 20260505205149 | 77 | 212 | 3.0 | 6.0 | 0.00 | 0.00 | 0.00 | 39 | 1008.0 |
| 20260505204645 | 78 | 189 | 4.0 | 5.0 | 0.00 | 0.00 | 0.00 | 38 | 1007.9 |
| 20260505204143 | 78 | 219 | 4.0 | 6.0 | 0.00 | 0.00 | 0.00 | 38 | 1008.0 |
| 20260505203640 | 79 | 260 | 2.0 | 3.0 | 0.00 | 0.00 | 0.00 | 38 | 1008.2 |
| 20260505203137 | 78 | 225 | 5.0 | 6.0 | 0.00 | 0.00 | 0.00 | 37 | 1008.0 |
| 20260505202632 | 78 | 278 | 3.0 | 3.0 | 0.00 | 0.00 | 0.00 | 37 | 1008.2 |
| 20260505202128 | 77 | 190 | 5.0 | 7.0 | 0.00 | 0.00 | 0.00 | 38 | 1008.0 |
| 20260505201625 | 79 | 223 | 4.0 | 6.0 | 0.00 | 0.00 | 0.00 | 37 | 1007.8 |
| 20260505201123 | 79 | 237 | 5.0 | 6.0 | 0.00 | 0.00 | 0.00 | 37 | 1007.7 |
| 20260505200621 | 78 | 234 | 3.0 | 5.0 | 0.00 | 0.00 | 0.00 | 37 | 1007.9 |
| 20260505200118 | 78 | 233 | 4.0 | 5.0 | 0.00 | 0.00 | 0.00 | 37 | 1007.9 |
| 20260505195614 | 79 | 176 | 5.0 | 9.0 | 0.00 | 0.00 | 0.00 | 36 | 1008.0 |
| 20260505195111 | 79 | 197 | 4.0 | 5.0 | 0.00 | 0.00 | 0.00 | 37 | 1008.1 |
| 20260505194608 | 78 | 225 | 7.0 | 9.0 | 0.00 | 0.00 | 0.00 | 36 | 1008.1 |
| 20260505194104 | 78 | 223 | 2.0 | 2.0 | 0.00 | 0.00 | 0.00 | 38 | 1007.8 |
| 20260505193601 | 78 | 256 | 4.0 | 5.0 | 0.00 | 0.00 | 0.00 | 38 | 1008.5 |
| 20260505193058 | 79 | 357 | 4.0 | 7.0 | 0.00 | 0.00 | 0.00 | 38 | 1008.2 |
| 20260505192557 | 78 | 257 | 3.0 | 5.0 | 0.00 | 0.00 | 0.00 | 38 | 1008.7 |
| 20260505192054 | 77 | 283 | 3.0 | 5.0 | 0.00 | 0.00 | 0.00 | 38 | 1008.7 |
| 20260505191552 | 76 | 239 | 5.0 | 6.0 | 0.00 | 0.00 | 0.00 | 40 | 1008.2 |
| 20260505191050 | 78 | 249 | 4.0 | 5.0 | 0.00 | 0.00 | 0.00 | 40 | 1008.5 |
| 20260505190544 | 78 | 264 | 3.0 | 3.0 | 0.00 | 0.00 | 0.00 | 39 | 1008.5 |
| 20260505190040 | 78 | 250 | 4.0 | 5.0 | 0.00 | 0.00 | 0.00 | 38 | 1008.6 |
| 20260505185537 | 78 | 226 | 3.0 | 5.0 | 0.00 | 0.00 | 0.00 | 40 | 1008.9 |
| 20260505185034 | 78 | 234 | 3.0 | 6.0 | 0.00 | 0.00 | 0.00 | 39 | 1008.6 |
| 20260505184531 | 79 | 183 | 5.0 | 7.0 | 0.00 | 0.00 | 0.00 | 39 | 1009.0 |
| 20260505184027 | 78 | 238 | 6.0 | 7.0 | 0.00 | 0.00 | 0.00 | 39 | 1009.1 |
| 20260505183524 | 78 | 255 | 3.0 | 6.0 | 0.00 | 0.00 | 0.00 | 41 | 1009.1 |
| 20260505183021 | 78 | 254 | 4.0 | 5.0 | 0.00 | 0.00 | 0.00 | 42 | 1008.9 |
| 20260505182512 | 79 | 311 | 3.0 | 5.0 | 0.00 | 0.00 | 0.00 | 42 | 1009.1 |
| 20260505182009 | 78 | 175 | 3.0 | 5.0 | 0.00 | 0.00 | 0.00 | 43 | 1008.9 |
| 20260505181505 | 78 | 235 | 3.0 | 3.0 | 0.00 | 0.00 | 0.00 | 45 | 1009.0 |
| 20260505181003 | 78 | 187 | 4.0 | 6.0 | 0.00 | 0.00 | 0.00 | 42 | 1008.9 |
| 20260505180458 | 78 | 287 | 3.0 | 3.0 | 0.00 | 0.00 | 0.00 | 41 | 1009.0 |
| 20260505175955 | 78 | 237 | 4.0 | 6.0 | 0.00 | 0.00 | 0.00 | 42 | 1009.6 |
| 20260505175451 | 79 | 265 | 5.0 | 7.0 | 0.00 | 0.00 | 0.00 | 41 | 1009.4 |
| 20260505174948 | 79 | 190 | 3.0 | 6.0 | 0.00 | 0.00 | 0.00 | 40 | 1009.0 |
| 20260505174445 | 79 | 261 | 4.0 | 5.0 | 0.00 | 0.00 | 0.00 | 40 | 1009.5 |
| 20260505173941 | 78 | 253 | 5.0 | 7.0 | 0.00 | 0.00 | 0.00 | 41 | 1009.1 |
| 20260505173438 | 77 | 325 | 3.0 | 3.0 | 0.00 | 0.00 | 0.00 | 44 | 1009.2 |
| 20260505172935 | 77 | 260 | 4.0 | 6.0 | 0.00 | 0.00 | 0.00 | 45 | 1009.6 |
| 20260505172434 | 77 | 244 | 2.0 | 2.0 | 0.00 | 0.00 | 0.00 | 46 | 1009.2 |
| 20260505171932 | 76 | 272 | 5.0 | 6.0 | 0.00 | 0.00 | 0.00 | 47 | 1009.4 |
| 20260505171430 | 77 | 254 | 3.0 | 3.0 | 0.00 | 0.00 | 0.00 | 45 | 1009.2 |
| 20260505170926 | 77 | 292 | 3.0 | 5.0 | 0.00 | 0.00 | 0.00 | 47 | 1009.1 |
| 20260505170423 | 77 | 266 | 3.0 | 5.0 | 0.00 | 0.00 | 0.00 | 46 | 1009.6 |
| 20260505165918 | 78 | 228 | 5.0 | 6.0 | 0.00 | 0.00 | 0.00 | 46 | 1009.5 |
| 20260505165415 | 77 | 188 | 7.0 | 10.0 | 0.00 | 0.00 | 0.00 | 44 | 1009.5 |
| 20260505164910 | 78 | 171 | 4.0 | 6.0 | 0.00 | 0.00 | 0.00 | 46 | 1009.6 |
| 20260505164407 | 77 | 245 | 3.0 | 3.0 | 0.00 | 0.00 | 0.00 | 49 | 1009.7 |
| 20260505163905 | 76 | 238 | 3.0 | 5.0 | 0.00 | 0.00 | 0.00 | 49 | 1009.9 |
| 20260505163404 | 76 | 212 | 2.0 | 3.0 | 0.00 | 0.00 | 0.00 | 51 | 1009.8 |
| 20260505162902 | 76 | 232 | 3.0 | 5.0 | 0.00 | 0.00 | 0.00 | 49 | 1009.8 |
| 20260505162357 | 76 | 241 | 5.0 | 6.0 | 0.00 | 0.00 | 0.00 | 48 | 1009.9 |
| 20260505161855 | 76 | 228 | 3.0 | 3.0 | 0.00 | 0.00 | 0.00 | 50 | 1010.2 |
| 20260505161352 | 76 | 213 | 4.0 | 5.0 | 0.00 | 0.00 | 0.00 | 50 | 1010.0 |
| 20260505160849 | 75 | 276 | 2.0 | 3.0 | 0.00 | 0.00 | 0.00 | 49 | 1010.3 |
| 20260505160347 | 76 | 254 | 3.0 | 3.0 | 0.00 | 0.00 | 0.00 | 49 | 1010.3 |
| 20260505153325 | 74 | 185 | 5.0 | 6.0 | 0.00 | 0.00 | 0.00 | 54 | 1010.6 |
| 20260505152822 | 74 | 214 | 4.0 | 6.0 | 0.00 | 0.00 | 0.00 | 53 | 1010.5 |
| 20260505152319 | 73 | 221 | 3.0 | 5.0 | 0.00 | 0.00 | 0.00 | 54 | 1010.5 |
| 20260505151814 | 73 | 231 | 3.0 | 3.0 | 0.00 | 0.00 | 0.00 | 54 | 1010.5 |
| 20260505151311 | 73 | 211 | 3.0 | 3.0 | 0.00 | 0.00 | 0.00 | 54 | 1010.6 |
| 20260505150808 | 72 | 237 | 0.0 | 1.0 | 0.00 | 0.00 | 0.00 | 57 | 1011.0 |
| 20260505150305 | 71 | 212 | 1.0 | 2.0 | 0.00 | 0.00 | 0.00 | 58 | 1010.8 |
| 20260505140229 | 70 | 232 | 2.0 | 2.0 | 0.00 | 0.00 | 0.00 | 60 | 1011.0 |
| 20260505130153 | 66 | 227 | 1.0 | 2.0 | 0.00 | 0.00 | 0.00 | 66 | 1011.2 |
| 20260505124643 | 65 | 227 | 1.0 | 2.0 | 0.00 | 0.00 | 0.00 | 67 | 1011.0 |
| 20260505124139 | 64 | 228 | 1.0 | 2.0 | 0.00 | 0.00 | 0.00 | 68 | 1010.8 |
| 20260505123635 | 64 | 231 | 2.0 | 2.0 | 0.00 | 0.00 | 0.00 | 68 | 1011.2 |
| 20260505123132 | 63 | 225 | 0.0 | 1.0 | 0.00 | 0.00 | 0.00 | 69 | 1011.1 |
| 20260505122629 | 63 | 224 | 2.0 | 3.0 | 0.00 | 0.00 | 0.00 | 68 | 1011.1 |
| 20260505122126 | 63 | 219 | 2.0 | 2.0 | 0.00 | 0.00 | 0.00 | 70 | 1010.9 |
| 20260505121623 | 63 | 223 | 3.0 | 3.0 | 0.00 | 0.00 | 0.00 | 71 | 1011.1 |
| 20260505121119 | 62 | 224 | 2.0 | 3.0 | 0.00 | 0.00 | 0.00 | 72 | 1011.0 |
| 20260505120616 | 62 | 225 | 2.0 | 3.0 | 0.00 | 0.00 | 0.00 | 72 | 1011.2 |
| 20260505120112 | 61 | 225 | 3.0 | 3.0 | 0.00 | 0.00 | 0.00 | 74 | 1011.1 |
| 20260505115606 | 61 | 226 | 2.0 | 2.0 | 0.00 | 0.00 | 0.00 | 75 | 1011.0 |
| 20260505115104 | 60 | 225 | 2.0 | 2.0 | 0.00 | 0.00 | 0.00 | 75 | 1010.9 |
| 20260505114601 | 60 | 229 | 2.0 | 2.0 | 0.00 | 0.00 | 0.00 | 77 | 1011.0 |
| 20260505114057 | 59 | 226 | 1.0 | 2.0 | 0.00 | 0.00 | 0.00 | 77 | 1010.9 |
| 20260505113553 | 58 | 226 | 3.0 | 3.0 | 0.00 | 0.00 | 0.00 | 79 | 1010.9 |
| 20260505113050 | 57 | 226 | 1.0 | 2.0 | 0.00 | 0.00 | 0.00 | 80 | 1011.0 |
| 20260505112546 | 57 | 226 | 1.0 | 2.0 | 0.00 | 0.00 | 0.00 | 82 | 1010.7 |
| 20260505112044 | 56 | 226 | 1.0 | 1.0 | 0.00 | 0.00 | 0.00 | 83 | 1011.0 |
| 20260505111538 | 55 | 226 | 2.0 | 2.0 | 0.00 | 0.00 | 0.00 | 84 | 1010.8 |
| 20260505111035 | 55 | 226 | 2.0 | 2.0 | 0.00 | 0.00 | 0.00 | 84 | 1011.0 |
| 20260505110531 | 55 | 228 | 2.0 | 2.0 | 0.00 | 0.00 | 0.00 | 84 | 1010.9 |
| 20260505101957 | 53 | 227 | 2.0 | 2.0 | 0.00 | 0.00 | 0.00 | 84 | 1010.7 |
| 20260505101450 | 53 | 228 | 2.0 | 2.0 | 0.00 | 0.00 | 0.00 | 83 | 1010.5 |
| 20260505100946 | 53 | 227 | 1.0 | 2.0 | 0.00 | 0.00 | 0.00 | 83 | 1010.4 |
| 20260505100443 | 53 | 226 | 3.0 | 3.0 | 0.00 | 0.00 | 0.00 | 82 | 1010.5 |
| 20260505095938 | 53 | 226 | 2.0 | 2.0 | 0.00 | 0.00 | 0.00 | 82 | 1010.4 |
| 20260505095430 | 52 | 225 | 2.0 | 2.0 | 0.00 | 0.00 | 0.00 | 80 | 1010.5 |
| 20260505094926 | 52 | 226 | 1.0 | 2.0 | 0.00 | 0.00 | 0.00 | 81 | 1010.4 |
| 20260505094424 | 51 | 226 | 1.0 | 1.0 | 0.00 | 0.00 | 0.00 | 82 | 1010.4 |
| 20260505093920 | 51 | 226 | 1.0 | 2.0 | 0.00 | 0.00 | 0.00 | 84 | 1010.4 |
| 20260505093417 | 50 | 226 | 1.0 | 2.0 | 0.00 | 0.00 | 0.00 | 85 | 1010.3 |
| 20260505092914 | 51 | 227 | 1.0 | 1.0 | 0.00 | 0.00 | 0.00 | 85 | 1010.4 |
| 20260505092412 | 51 | 227 | 1.0 | 1.0 | 0.00 | 0.00 | 0.00 | 84 | 1010.6 |
| 20260505091909 | 51 | 227 | 1.0 | 1.0 | 0.00 | 0.00 | 0.00 | 84 | 1010.3 |
| 20260505091406 | 51 | 227 | 0.0 | 0.0 | 0.00 | 0.00 | 0.00 | 85 | 1010.5 |
| 20260505090904 | 50 | 227 | 0.0 | 0.0 | 0.00 | 0.00 | 0.00 | 84 | 1010.5 |
| 20260505090402 | 50 | 227 | 0.0 | 0.0 | 0.00 | 0.00 | 0.00 | 85 | 1010.4 |
| 20260505085859 | 50 | 227 | 1.0 | 1.0 | 0.00 | 0.00 | 0.00 | 85 | 1010.4 |
| 20260505085357 | 51 | 226 | 1.0 | 1.0 | 0.00 | 0.00 | 0.00 | 84 | 1010.4 |
| 20260505084855 | 52 | 228 | 0.0 | 1.0 | 0.00 | 0.00 | 0.00 | 79 | 1010.5 |
| 20260505084353 | 52 | 228 | 0.0 | 0.0 | 0.00 | 0.00 | 0.00 | 77 | 1010.5 |
| 20260505083850 | 52 | 228 | 0.0 | 1.0 | 0.00 | 0.00 | 0.00 | 75 | 1010.4 |
| 20260505083348 | 53 | 228 | 0.0 | 0.0 | 0.00 | 0.00 | 0.00 | 75 | 1010.1 |
| 20260505082844 | 53 | 228 | 1.0 | 1.0 | 0.00 | 0.00 | 0.00 | 74 | 1010.1 |
| 20260505082340 | 53 | 228 | 1.0 | 2.0 | 0.00 | 0.00 | 0.00 | 74 | 1010.1 |
| 20260505081837 | 53 | 228 | 1.0 | 1.0 | 0.00 | 0.00 | 0.00 | 73 | 1010.2 |
| 20260505081333 | 53 | 228 | 1.0 | 1.0 | 0.00 | 0.00 | 0.00 | 73 | 1010.1 |
| 20260505080830 | 53 | 228 | 1.0 | 2.0 | 0.00 | 0.00 | 0.00 | 73 | 1010.1 |
| 20260505080326 | 54 | 228 | 1.0 | 2.0 | 0.00 | 0.00 | 0.00 | 73 | 1010.2 |
| 20260505075822 | 54 | 227 | 1.0 | 1.0 | 0.00 | 0.00 | 0.00 | 72 | 1009.8 |
| 20260505075319 | 54 | 227 | 2.0 | 2.0 | 0.00 | 0.00 | 0.00 | 70 | 1009.9 |
| 20260505074816 | 54 | 227 | 1.0 | 2.0 | 0.00 | 0.00 | 0.00 | 71 | 1010.1 |
| 20260505074313 | 55 | 227 | 1.0 | 1.0 | 0.00 | 0.00 | 0.00 | 70 | 1009.8 |
| 20260505073811 | 55 | 227 | 1.0 | 1.0 | 0.00 | 0.00 | 0.00 | 69 | 1010.2 |
| 20260505073309 | 55 | 227 | 1.0 | 1.0 | 0.00 | 0.00 | 0.00 | 69 | 1010.2 |
| 20260505072805 | 55 | 226 | 3.0 | 3.0 | 0.00 | 0.00 | 0.00 | 69 | 1010.0 |
| 20260505072301 | 55 | 226 | 1.0 | 1.0 | 0.00 | 0.00 | 0.00 | 68 | 1010.1 |
| 20260505071757 | 55 | 226 | 1.0 | 1.0 | 0.00 | 0.00 | 0.00 | 69 | 1010.1 |
| 20260505071254 | 55 | 225 | 2.0 | 2.0 | 0.00 | 0.00 | 0.00 | 68 | 1009.9 |
| 20260505070752 | 55 | 226 | 2.0 | 2.0 | 0.00 | 0.00 | 0.00 | 68 | 1010.0 |
| 20260505070248 | 55 | 225 | 1.0 | 1.0 | 0.00 | 0.00 | 0.00 | 68 | 1010.0 |
| 20260505065743 | 55 | 226 | 2.0 | 2.0 | 0.00 | 0.00 | 0.00 | 69 | 1010.1 |
| 20260505065240 | 55 | 226 | 0.0 | 1.0 | 0.00 | 0.00 | 0.00 | 69 | 1009.8 |
| 20260505064737 | 55 | 226 | 1.0 | 1.0 | 0.00 | 0.00 | 0.00 | 69 | 1010.1 |
| 20260505064235 | 55 | 226 | 2.0 | 2.0 | 0.00 | 0.00 | 0.00 | 68 | 1010.1 |
| 20260505063732 | 55 | 224 | 3.0 | 3.0 | 0.00 | 0.00 | 0.00 | 68 | 1010.4 |
| 20260505063229 | 55 | 224 | 2.0 | 2.0 | 0.00 | 0.00 | 0.00 | 69 | 1010.1 |
| 20260505062725 | 55 | 224 | 2.0 | 2.0 | 0.00 | 0.00 | 0.00 | 68 | 1010.2 |
| 20260505062223 | 55 | 224 | 3.0 | 3.0 | 0.00 | 0.00 | 0.00 | 68 | 1010.4 |
| 20260505061720 | 55 | 224 | 2.0 | 2.0 | 0.00 | 0.00 | 0.00 | 68 | 1010.3 |
| 20260505061218 | 55 | 223 | 2.0 | 3.0 | 0.00 | 0.00 | 0.00 | 68 | 1010.0 |
| 20260505060715 | 55 | 224 | 2.0 | 2.0 | 0.00 | 0.00 | 0.00 | 68 | 1010.0 |
| 20260505060211 | 55 | 224 | 2.0 | 2.0 | 0.00 | 0.00 | 0.00 | 68 | 1010.3 |
| 20260505055707 | 55 | 225 | 1.0 | 2.0 | 0.00 | 0.00 | 0.00 | 67 | 1010.2 |